THOR ABLESTAR DEB

Satellite information

Favourite Embed

Satellite Type and Status

DEBRISIN ORBIT

Key statistics

Satellite THOR ABLESTAR DEB at a glance.

Uptime

23544

Days in orbit

Revolutions

≈ 14.1

Per day

Orbit

LEO

Low Earth Orbit

Inclination

65.8

Latest

Satellite identification and parameters

Extended collection of information and parameters for THOR ABLESTAR DEB.

Object identification

Identified? True

Debris? True

Object name: THOR ABLESTAR DEB

International designator: 1961-015AJ

Object number (NORAD): 148

Object ID (CCSDS): 148

Country: UNITED STATES OF AMERICA (US)

Current information (Y/N): Y

RCS size: MEDIUM

Orbital parameters

Period: 102.097 minutes

Inclination: 65.7719 deg

SMA: 7236.045 km

Apoapsis: 954.593 km

Periapsis: 761.228 km

RAAN: 243.4397 deg

Eccentricy: 0.01336123

Argument of periapsis: 54.8263 deg

Mean anomaly: 306.5247 deg

Mean motion: 14.10427717 rev/day

Mean motion (dot): 0.00001498 rev/day2

B* drag term: 0.00081986756 1/REarth

Two-line elements (TLE)

Creation date: Dec. 13, 2025, 5:47 p.m.

Reference frame: TEME

Reference center: EARTH

Epoch: Dec. 13, 2025, 2:48 a.m. UTC

TLE line 0: 0 THOR ABLESTAR DEB

TLE line 1: 1 00148U 61015AJ 25347.11677880 .00001498 00000-0 81987-3 0 9993

TLE line 2: 2 00148 65.7719 243.4397 0133612 54.8263 306.5247 14.10427717732739

Live tracking on map

Real-time ground track for satellite THOR ABLESTAR DEB.

In-orbit conjunctions

A list of the most updated potential collisions computed for object THOR ABLESTAR DEB.

Target Orbit TCA Probability of collision Miss distance Type
COSMOS 970 DEB LEO 2025-12-13 22:24:31 0.0002024512 82.0 (m) DEBRIS
CZ-6A DEB LEO 2025-07-21 14:26:26 0.0001528065 393.0 (m) DEBRIS
SL-8 R/B LEO 2024-09-18 15:18:20 0.0003463787 652.0 (m) ROCKET BODY

Associated space launch

THOR ABLESTAR DEB was lifted into orbit during the mission ‘Thor DM-21 Ablestar | Transit 4A & Injun-1 & Solrad 3’, on board a Thor DM-21 Ablestar space rocket.

The launch took place on June 29, 1961, 4:23 a.m. from Space Launch Complex 17B.

For more information about the launch, click the button.

Launch to space Thor DM-21 Ablestar | Transit 4A & Injun-1 & Solrad 3
Thor DM-21 Ablestar | Transit 4A & Injun-1 & Solrad 3

Agency: N/A

Status: Launch Successful

Launch date: June 29, 1961, 4:23 a.m. UTC

Rocket: Thor DM-21 Ablestar

Launch pad: Space Launch Complex 17B

Location: Cape Canaveral SFS, FL, USA

...

Latest news about this satellite

There are no fresh news available about this satellite. Check back as we update our databases every day.


Newsletter sign-up

Weekly statistics, charts and insights to help you stay on top of the space industry.